Caro, MI

9:32 AM EDT on March 27, 2017 (GMT -0400)
Caro

Weather History for KCFS - October, 2011

Change the Weather History Date:

Wednesday, October 5, 2011

  Actual Average (KMBS) Record (KMBS)
Temperature  
Mean Temperature 56 °F -  
Max Temperature 71 °F 63 °F 86 °F (2005)
Min Temperature 41 °F 40 °F 26 °F (2004)
Degree Days  
Heating Degree Days 9    
Growing Degree Days 6 (Base 50)    
Moisture  
Dew Point 45 °F    
Average Humidity 79    
Maximum Humidity 100    
Minimum Humidity 41    
Precipitation  
Precipitation 0.00 in - - ()
Sea Level Pressure  
Sea Level Pressure 30.26 in    
Wind  
Wind Speed 0 mph (NE)    
Max Wind Speed 8 mph    
Max Gust Speed -    
Visibility 10 miles    
Events      
Averages and records for this station are not official NWS values.
T = Trace of Precipitation, MM = Missing Value Source: NWS Daily Summary

Daily Weather History Graph

Daily Weather History Graph

Search for Another Location

Airport or City:

Trip Planner

Search our weather history database for the weather conditions in past years. The results will help you decide how hot, cold, wet, or windy it might be!

Date:

Astronomy

Oct. 05, 2011 Rise Set
Actual Time 7:35 AM EDT 7:08 PM EDT
Civil Twilight 7:07 AM EDT 7:36 PM EDT
Nautical Twilight 6:33 AM EDT 8:09 PM EDT
Astronomical Twilight 6:00 AM EDT 8:43 PM EDT
Moon 3:57 PM EDT (10/5) 1:10 AM EDT (10/5)
Length of Visible Light 12h 29m
Length of Day
11h 32m
Waxing Gibbous, 66% of the Moon is Illuminated
Oct 5
Waxing Gibbous
Oct 11
Full
Oct 19
Last Quarter
Oct 26
New
Nov 2
First Quarter

Hourly Weather History & Observations

Time (EDT) Temp. Dew Point Humidity Pressure Visibility Wind Dir Wind Speed Gust Speed Precip Events Conditions
12:14 AM 44.6 °F 42.8 °F 93% 30.22 in 10.0 mi Calm Calm - N/A   Clear
12:34 AM 42.8 °F 42.8 °F 100% 30.22 in 10.0 mi Calm Calm - N/A   Clear
12:54 AM 42.8 °F 42.8 °F 100% 30.22 in - Calm Calm - N/A   Unknown
1:15 AM 42.8 °F 42.8 °F 100% 30.22 in 10.0 mi Calm Calm - N/A   Clear
1:34 AM 42.8 °F 42.8 °F 100% 30.22 in 10.0 mi Calm Calm - N/A   Clear
1:55 AM 42.8 °F 42.8 °F 100% 30.22 in 10.0 mi Calm Calm - N/A   Clear
2:14 AM 42.8 °F 42.8 °F 100% 30.22 in 10.0 mi Calm Calm - N/A   Clear
2:34 AM 41.0 °F 41.0 °F 100% 30.22 in 10.0 mi Calm Calm - N/A   Clear
3:34 AM 41.0 °F 41.0 °F 100% 30.22 in 10.0 mi Calm Calm - N/A   Clear
3:55 AM 42.8 °F 41.0 °F 93% 30.22 in 10.0 mi Calm Calm - N/A   Clear
4:14 AM 42.8 °F 42.8 °F 100% 30.22 in 10.0 mi Calm Calm - N/A   Scattered Clouds
4:34 AM 42.8 °F 42.8 °F 100% 30.22 in 10.0 mi Calm Calm - N/A   Scattered Clouds
4:55 AM 42.8 °F 42.8 °F 100% 30.22 in 10.0 mi Calm Calm - N/A   Clear
5:14 AM 44.6 °F 42.8 °F 93% 30.23 in 10.0 mi Calm Calm - N/A   Clear
5:55 AM 42.8 °F 42.8 °F 100% 30.23 in 10.0 mi Calm Calm - N/A   Clear
6:14 AM 42.8 °F 41.0 °F 93% 30.24 in 10.0 mi Calm Calm - N/A   Clear
6:34 AM 41.0 °F 41.0 °F 100% 30.24 in 10.0 mi Calm Calm - N/A   Clear
6:55 AM 41.0 °F 41.0 °F 100% 30.24 in 10.0 mi Calm Calm - N/A   Clear
7:14 AM 41.0 °F 41.0 °F 100% 30.25 in 10.0 mi Calm Calm - N/A   Clear
7:35 AM 41.0 °F 41.0 °F 100% 30.25 in 10.0 mi Calm Calm - N/A   Clear
7:55 AM 41.0 °F 41.0 °F 100% 30.26 in 10.0 mi Calm Calm - N/A   Clear
8:14 AM 41.0 °F 41.0 °F 100% 30.27 in 10.0 mi Calm Calm - N/A   Clear
8:34 AM 42.8 °F 42.8 °F 100% 30.27 in 10.0 mi Calm Calm - N/A   Clear
8:54 AM 46.4 °F 44.6 °F 93% 30.28 in 10.0 mi Calm Calm - N/A   Clear
9:15 AM 48.2 °F 46.4 °F 93% 30.28 in 10.0 mi SSW 3.5 mph - N/A   Clear
9:34 AM 51.8 °F 48.2 °F 88% 30.29 in 10.0 mi Calm Calm - N/A   Clear
9:54 AM 53.6 °F 50.0 °F 88% 30.29 in 10.0 mi Calm Calm - N/A   Clear
10:15 AM 55.4 °F 50.0 °F 82% 30.29 in 10.0 mi Calm Calm - N/A   Clear
10:34 AM 59.0 °F 50.0 °F 72% 30.29 in 10.0 mi Calm Calm - N/A   Clear
10:54 AM 59.0 °F 50.0 °F 72% 30.29 in 10.0 mi Calm Calm - N/A   Clear
11:15 AM 60.8 °F 48.2 °F 63% 30.29 in 10.0 mi Calm Calm - N/A   Clear
11:35 AM 62.6 °F 46.4 °F 55% 30.30 in 10.0 mi Calm Calm - N/A   Clear
11:54 AM 62.6 °F 46.4 °F 55% 30.29 in 10.0 mi Calm Calm - N/A   Clear
12:15 PM 64.4 °F 48.2 °F 56% 30.29 in 10.0 mi Calm Calm - N/A   Clear
12:34 PM 64.4 °F 46.4 °F 52% 30.29 in 10.0 mi Calm Calm - N/A   Clear
12:55 PM 64.4 °F 44.6 °F 49% 30.29 in 10.0 mi Calm Calm - N/A   Clear
1:14 PM 64.4 °F 46.4 °F 52% 30.29 in 10.0 mi ENE 3.5 mph - N/A   Clear
1:34 PM 66.2 °F 46.4 °F 49% 30.28 in 10.0 mi ENE 3.5 mph - N/A   Clear
1:55 PM 68.0 °F 46.4 °F 46% 30.27 in 10.0 mi East 4.6 mph - N/A   Clear
2:14 PM 68.0 °F 46.4 °F 46% 30.27 in 10.0 mi Calm Calm - N/A   Clear
2:34 PM 68.0 °F 46.4 °F 46% 30.27 in 10.0 mi Calm Calm - N/A   Clear
3:34 PM 69.8 °F 46.4 °F 43% 30.26 in 10.0 mi Calm Calm - N/A   Clear
3:55 PM 71.6 °F 48.2 °F 43% 30.25 in 10.0 mi Calm Calm - N/A   Clear
4:14 PM 71.6 °F 46.4 °F 41% 30.25 in 10.0 mi Calm Calm - N/A   Clear
4:34 PM 68.0 °F 51.8 °F 56% 30.25 in 10.0 mi North 8.1 mph - N/A   Clear
4:55 PM 69.8 °F 51.8 °F 53% 30.25 in 10.0 mi NNE 6.9 mph - N/A   Clear
5:14 PM 68.0 °F 53.6 °F 60% 30.25 in 10.0 mi North 8.1 mph - N/A   Clear
5:55 PM 68.0 °F 53.6 °F 60% 30.26 in 10.0 mi North 9.2 mph - N/A   Clear
6:14 PM 64.4 °F 55.4 °F 73% 30.27 in 10.0 mi NNE 8.1 mph - N/A   Clear
6:35 PM 62.6 °F 53.6 °F 72% 30.27 in 10.0 mi NNE 6.9 mph - N/A   Clear
6:55 PM 60.8 °F 55.4 °F 82% 30.27 in 10.0 mi North 5.8 mph - N/A   Clear
7:14 PM 60.8 °F 55.4 °F 82% 30.27 in 10.0 mi NNE 4.6 mph - N/A   Clear
7:35 PM 59.0 °F 55.4 °F 88% 30.27 in 10.0 mi NNE 4.6 mph - N/A   Clear
7:54 PM 59.0 °F 53.6 °F 82% 30.28 in 10.0 mi NNE 4.6 mph - N/A   Clear
8:14 PM 59.0 °F 53.6 °F 82% 30.28 in 10.0 mi Calm Calm - N/A   Clear
8:35 PM 59.0 °F 53.6 °F 82% 30.28 in 10.0 mi ENE 3.5 mph - N/A   Clear
8:54 PM 57.2 °F 53.6 °F 88% 30.29 in 10.0 mi ENE 3.5 mph - N/A   Clear
9:14 PM 55.4 °F 53.6 °F 94% 30.29 in 10.0 mi Calm Calm - N/A   Clear
9:35 PM 55.4 °F 53.6 °F 94% 30.29 in 10.0 mi Calm Calm - N/A   Clear
10:14 PM 53.6 °F 51.8 °F 94% 30.29 in 10.0 mi ENE 3.5 mph - N/A   Clear
10:35 PM 53.6 °F 50.0 °F 88% 30.29 in 10.0 mi ENE 4.6 mph - N/A   Clear
10:54 PM 53.6 °F 50.0 °F 88% 30.29 in 10.0 mi Calm Calm - N/A   Clear
11:15 PM 51.8 °F 50.0 °F 94% 30.29 in 10.0 mi Calm Calm - N/A   Clear
11:34 PM 50.0 °F 48.2 °F 94% 30.29 in 10.0 mi Calm Calm - N/A   Clear
11:54 PM 50.0 °F 50.0 °F 100% 30.29 in 10.0 mi Calm Calm - N/A   Clear